Погода в Варыпаеве

Россия / Пензенская область     52°41′21″N   45°11′59″E
темп.,
°C
ветер,
м/с
пор.,
м/с
влажн.,
%
обл.,
%
осадки,
мм/ч
давл.,
гПа
погр.,
м
14 мая, пт
пт1400:00+15юв3391100 0.3 101836
03:00+14юв229159 0.3 101818
06:00+16юв2287100 0.0 101958
09:00+20ююв23710 0.0 1019445
12:00+24ююв35555 0.0 10191250
15:00+25ююв45555 0.0 10181343
18:00+23ююв4871100 0.0 1017200
21:00+19юв3471100 0.0 101856
15 мая, сб
сб1500:00+18юв41172100 0.0 1017194
03:00+17ююв6166253 0.0 1017331
06:00+17ююв6156527 0.0 1017296
09:00+22ююв6145221 0.0 1017624
12:00+25ююв7114550 0.0 1017917
15:00+26ю61145100 0.0 10171164
18:00+23ююв512580 0.0 1016324
21:00+18ююв4135728 0.0 1016193
16 мая, вс
вс1600:00+17ююв4135781 0.0 1016209
03:00+15ю496171 0.0 1016128
06:00+16ю376956 0.0 1016162
09:00+22ю575262 0.0 1017415
12:00+25ю694093 0.0 10161102
15:00+26ююз58415 0.0 10161739
18:00+24ю335859 0.0 101562
21:00+19ююв2362100 0.0 101616
17 мая, пн
пн1700:00+18вюв3356100 0.0 101635
03:00+17ююв2258100 0.0 101614
06:00+18юв346531 0.0 101782
09:00+24ююв5104763 0.0 1016539
12:00+26ююв6103899 0.0 1016962
15:00+27ююв5942100 0.0 10161398
18:00+24юв3556100 0.0 101582
21:00+19юв4556100 0.0 101649
18 мая, вт
вт1800:00+18юв4550100 0.0 101560
03:00+17вюв4850100 0.0 1015109
06:00+17юв486498 0.0 1015131
09:00+22ююв4750100 0.0 1015292
12:00+27ююв573697 0.0 1014801
15:00+28юв584155 0.0 10131344
18:00+24юв4759100 0.0 1013128
21:00+20юв475398 0.0 101387